sat.trackr.live / text

‹ back to catalog

STARLINK-5613

NORAD 55752 · 2023-028M

PAYLOAD ACTIVE UNKNOWN

§ Identity

Operator
Country
US
Launch date
2023-03-03
Launch site
AFWTR
Launch vehicle
Mass (kg)
RCS (m²)

Purposes: comms

External: N2YO · Heavens-Above · Gunter

§ Orbital elements

Epoch: 2026-05-25T03:08:02.608800Z

Period
96.11 min
Inclination
70.0004°
Eccentricity
0.0002576
Mean motion
14.98332022 rev/d
Perigee alt
570.3 km
Apogee alt
573.8 km
Semi-major
6,950.2 km
B*
3.2284e-5
RAAN
51.5888°
Arg perigee
268.6182°
Mean anomaly
91.4682°
Rev number
17,749

§ Raw data

STARLINK-56131 55752U 23028M   26145.13058575  .00000292  00000+0  32284-4 0  99962 55752  70.0004  51.5888 0002576 268.6182  91.4682 14.98332022177497

JSON: /api/v1/satellites/55752 · /tle

For live sub-satellite position, see the globe view (requires WebGL).

§ Visibility from observer

Set your observer location to see the next 7 days of passes ≥ 10°. The values pass through the URL so the page stays shareable.

No JS? Fill the form by hand. The geolocation button needs JavaScript.